| time (UTC) | temp C | wind direction | speed KPH | gust KPH | rain 1hr cm | rain 24hr cm | rain mn cm | humidity % | barometer mb |
| 20260505200034 | 30 | 0 | 3.2 | 6.4 | 0.00 | 0.03 | 0.03 | 43 | 1015.3 |
| 20260505194544 | 28 | 0 | 0.0 | 6.4 | 0.00 | 0.03 | 0.03 | 48 | 1015.5 |
| 20260505193039 | 29 | 119 | 1.6 | 12.9 | 0.00 | 0.03 | 0.03 | 46 | 1015.6 |
| 20260505191545 | 28 | 0 | 0.0 | 4.8 | 0.00 | 0.03 | 0.03 | 51 | 1015.8 |
| 20260505190041 | 28 | 0 | 0.0 | 8.0 | 0.00 | 0.03 | 0.03 | 49 | 1016.0 |
| 20260505184548 | 28 | 138 | 1.6 | 8.0 | 0.00 | 0.03 | 0.03 | 51 | 1016.1 |
| 20260505183045 | 28 | 0 | 1.6 | 4.8 | 0.00 | 0.03 | 0.03 | 50 | 1016.1 |
| 20260505181541 | 28 | 312 | 1.6 | 9.7 | 0.00 | 0.03 | 0.03 | 49 | 1016.3 |
| 20260505180045 | 28 | 179 | 1.6 | 8.0 | 0.00 | 0.03 | 0.03 | 51 | 1016.4 |
| 20260505174542 | 27 | 94 | 1.6 | 8.0 | 0.00 | 0.03 | 0.03 | 53 | 1016.4 |
| 20260505173042 | 28 | 57 | 0.0 | 9.7 | 0.00 | 0.03 | 0.03 | 52 | 1016.7 |
| 20260505171540 | 27 | 98 | 1.6 | 12.9 | 0.00 | 0.03 | 0.03 | 55 | 1016.7 |
| 20260505170040 | 27 | 139 | 1.6 | 8.0 | 0.00 | 0.03 | 0.03 | 56 | 1016.8 |
| 20260505164538 | 26 | 55 | 1.6 | 8.0 | 0.00 | 0.05 | 0.03 | 60 | 1017.0 |
| 20260505163037 | 26 | 0 | 1.6 | 11.3 | 0.00 | 0.05 | 0.03 | 60 | 1017.3 |
| 20260505161543 | 26 | 308 | 1.6 | 12.9 | 0.00 | 0.05 | 0.03 | 61 | 1017.3 |
| 20260505153045 | 25 | 127 | 1.6 | 9.7 | 0.00 | 0.05 | 0.03 | 67 | 1017.6 |
| 20260505151543 | 25 | 5 | 1.6 | 12.9 | 0.00 | 0.05 | 0.03 | 69 | 1017.8 |
| 20260505124543 | 18 | 0 | 0.0 | 3.2 | 0.00 | 0.05 | 0.03 | 81 | 1017.0 |
| 20260505123042 | 17 | 0 | 0.0 | 4.8 | 0.00 | 0.05 | 0.03 | 84 | 1017.0 |
| 20260505121547 | 16 | 0 | 0.0 | 3.2 | 0.00 | 0.05 | 0.03 | 87 | 1016.8 |
| 20260505120042 | 14 | 256 | 0.0 | 1.6 | 0.00 | 0.05 | 0.03 | 93 | 1016.7 |
| 20260505114540 | 13 | 0 | 0.0 | 1.6 | 0.00 | 0.05 | 0.03 | 92 | 1016.6 |
| 20260505113042 | 12 | 0 | 0.0 | 1.6 | 0.00 | 0.05 | 0.03 | 92 | 1016.6 |
| 20260505111543 | 12 | 0 | 0.0 | 0.0 | 0.00 | 0.05 | 0.03 | 91 | 1016.4 |
| 20260505101536 | 13 | 0 | 0.0 | 0.0 | 0.03 | 0.05 | 0.03 | 89 | 1016.1 |
| 20260505100036 | 13 | 0 | 0.0 | 0.0 | 0.03 | 0.05 | 0.03 | 89 | 1016.1 |
| 20260505094542 | 13 | 0 | 0.0 | 0.0 | 0.03 | 0.05 | 0.03 | 89 | 1016.0 |
| 20260505093050 | 13 | 0 | 0.0 | 0.0 | 0.03 | 0.05 | 0.03 | 88 | 1015.9 |
| 20260505091537 | 13 | 0 | 0.0 | 0.0 | 0.00 | 0.03 | 0.00 | 88 | 1015.9 |
| 20260505090039 | 13 | 0 | 0.0 | 0.0 | 0.00 | 0.03 | 0.00 | 87 | 1015.6 |
| 20260505084537 | 14 | 0 | 0.0 | 0.0 | 0.00 | 0.05 | 0.00 | 86 | 1015.4 |
| 20260505083100 | 15 | 0 | 0.0 | 0.0 | 0.00 | 0.05 | 0.00 | 85 | 1015.5 |
| 20260505081541 | 15 | 0 | 0.0 | 1.6 | 0.00 | 0.05 | 0.00 | 84 | 1015.4 |
| 20260505080044 | 15 | 0 | 0.0 | 1.6 | 0.00 | 0.05 | 0.00 | 83 | 1015.3 |
| 20260505074540 | 15 | 0 | 0.0 | 0.0 | 0.00 | 0.05 | 0.00 | 83 | 1015.5 |
| 20260505073040 | 16 | 0 | 0.0 | 1.6 | 0.00 | 0.05 | 0.00 | 82 | 1015.5 |
| 20260505071536 | 16 | 0 | 0.0 | 3.2 | 0.00 | 0.05 | 0.00 | 81 | 1015.6 |
| 20260505070048 | 16 | 0 | 0.0 | 1.6 | 0.00 | 0.05 | 0.00 | 80 | 1015.7 |
| 20260505064541 | 16 | 0 | 0.0 | 1.6 | 0.00 | 0.05 | 0.00 | 79 | 1015.9 |
| 20260505063042 | 16 | 0 | 0.0 | 3.2 | 0.00 | 0.05 | 0.00 | 79 | 1015.9 |
| 20260505061553 | 17 | 0 | 0.0 | 0.0 | 0.00 | 0.05 | 0.00 | 77 | 1016.2 |
| 20260505060036 | 17 | 0 | 0.0 | 1.6 | 0.00 | 0.05 | 0.00 | 76 | 1016.4 |
| 20260505054544 | 17 | 0 | 0.0 | 3.2 | 0.00 | 0.05 | 0.00 | 75 | 1016.4 |
| 20260505053035 | 18 | 62 | 0.0 | 6.4 | 0.00 | 0.05 | 0.00 | 74 | 1016.4 |
| 20260505051540 | 18 | 74 | 0.0 | 4.8 | 0.00 | 0.05 | 0.00 | 74 | 1016.5 |
| 20260505041539 | 18 | 71 | 1.6 | 11.3 | 0.00 | 0.05 | 0.00 | 72 | 1017.1 |
| 20260505040056 | 18 | 75 | 1.6 | 3.2 | 0.00 | 0.05 | 0.00 | 72 | 1017.0 |
| 20260505034542 | 18 | 0 | 0.0 | 4.8 | 0.00 | 0.05 | 0.05 | 70 | 1017.0 |
| 20260505033036 | 18 | 80 | 0.0 | 4.8 | 0.00 | 0.05 | 0.05 | 69 | 1016.8 |
| 20260505031545 | 19 | 71 | 0.0 | 3.2 | 0.00 | 0.05 | 0.05 | 68 | 1017.0 |
| 20260505030043 | 19 | 71 | 0.0 | 4.8 | 0.00 | 0.05 | 0.05 | 67 | 1016.7 |
| 20260505024538 | 18 | 69 | 1.6 | 4.8 | 0.00 | 0.08 | 0.05 | 67 | 1016.7 |
| 20260505023040 | 18 | 0 | 0.0 | 4.8 | 0.00 | 0.08 | 0.05 | 67 | 1016.8 |
| 20260505021537 | 16 | 54 | 0.0 | 4.8 | 0.00 | 0.08 | 0.05 | 70 | 1016.6 |
| 20260505020040 | 17 | 0 | 0.0 | 0.0 | 0.00 | 0.08 | 0.05 | 72 | 1016.0 |
| 20260505014544 | 17 | 0 | 0.0 | 0.0 | 0.00 | 0.08 | 0.05 | 66 | 1015.8 |
| 20260505013037 | 18 | 0 | 0.0 | 0.0 | 0.00 | 0.08 | 0.05 | 66 | 1015.8 |
| 20260505011539 | 19 | 0 | 0.0 | 0.0 | 0.00 | 0.08 | 0.05 | 62 | 1015.6 |
| 20260505010045 | 20 | 0 | 0.0 | 0.0 | 0.00 | 0.08 | 0.05 | 59 | 1015.6 |
| 20260505004535 | 20 | 0 | 0.0 | 0.0 | 0.00 | 0.08 | 0.05 | 56 | 1015.5 |
| 20260505003035 | 21 | 0 | 0.0 | 0.0 | 0.00 | 0.08 | 0.05 | 53 | 1015.7 |
| 20260505001540 | 22 | 0 | 0.0 | 1.6 | 0.00 | 0.08 | 0.05 | 53 | 1015.4 |
| 20260505000049 | 22 | 0 | 0.0 | 1.6 | 0.00 | 0.08 | 0.05 | 50 | 1015.4 |
| 20260504234537 | 23 | 0 | 0.0 | 1.6 | 0.00 | 0.08 | 0.05 | 49 | 1015.4 |
| 20260504233036 | 24 | 0 | 0.0 | 1.6 | 0.00 | 0.08 | 0.05 | 48 | 1015.3 |
| 20260504231534 | 25 | 0 | 0.0 | 3.2 | 0.00 | 0.08 | 0.05 | 44 | 1015.3 |
| 20260504230035 | 25 | 0 | 0.0 | 11.3 | 0.00 | 0.08 | 0.05 | 42 | 1015.3 |
| 20260504224540 | 25 | 65 | 1.6 | 8.0 | 0.00 | 0.10 | 0.05 | 40 | 1015.1 |
| 20260504223040 | 26 | 26 | 1.6 | 6.4 | 0.00 | 0.10 | 0.05 | 36 | 1014.9 |
| 20260504221540 | 26 | 71 | 3.2 | 9.7 | 0.00 | 0.10 | 0.05 | 38 | 1014.9 |
| 20260504220046 | 26 | 344 | 0.0 | 6.4 | 0.00 | 0.10 | 0.05 | 36 | 1015.1 |
| 20260504214542 | 26 | 192 | 1.6 | 8.0 | 0.00 | 0.10 | 0.05 | 38 | 1015.2 |
| 20260504213055 | 26 | 0 | 0.0 | 9.7 | 0.00 | 0.10 | 0.05 | 40 | 1015.0 |
| 20260504211542 | 27 | 238 | 0.0 | 8.0 | 0.00 | 0.10 | 0.05 | 37 | 1015.2 |
| 20260504210046 | 27 | 278 | 0.0 | 4.8 | 0.00 | 0.10 | 0.05 | 36 | 1015.6 |
| 20260504204545 | 27 | 341 | 1.6 | 4.8 | 0.00 | 0.13 | 0.05 | 36 | 1015.6 |
| 20260504203043 | 27 | 198 | 1.6 | 8.0 | 0.00 | 0.13 | 0.05 | 36 | 1015.5 |
| 20260504201542 | 27 | 286 | 3.2 | 6.4 | 0.00 | 0.13 | 0.05 | 35 | 1015.8 |